Overview Statistics Trail Chart Weather Telemetry Raw packets
 

This is the latest recevied weather packets stored in our database for station/object DG9VH-13. If no packets are shown the sender has not sent any weather packets the latest 10 day(s).

<< 20 21 22 23 24 25 26 >>
Time Temp. Humidity Pressure Rain* Wind** Luminosity Snow
1788392401 16.67° C 65% 1005 hPa - - - -
1788391802 16.67° C 65% 1005.1 hPa - - - -
1788391200 17.22° C 65% 1005.2 hPa - - - -
1788390602 17.22° C 65% 1005.2 hPa - - - -
1788390001 17.22° C 65% 1005.2 hPa - - - -
1788389401 17.22° C 64% 1005.1 hPa - - - -
1788388801 17.78° C 64% 1005.1 hPa - - - -
1788388201 17.78° C 64% 1005.2 hPa - - - -
1788387601 17.78° C 64% 1005.1 hPa - - - -
1788387003 17.78° C 63% 1005.1 hPa - - - -
1788386400 17.78° C 62% 1005.1 hPa - - - -
1788385801 18.33° C 62% 1005 hPa - - - -
1788385201 18.33° C 62% 1004.9 hPa - - - -
1788384601 18.33° C 62% 1004.9 hPa - - - -
1788384004 18.33° C 61% 1004.9 hPa - - - -
1788383400 18.89° C 61% 1004.7 hPa - - - -
1788382802 18.33° C 62% 1004.8 hPa - - - -
1788382201 18.89° C 61% 1004.7 hPa - - - -
1788381601 18.89° C 60% 1004.6 hPa - - - -
1788381000 19.44° C 60% 1004.6 hPa - - - -
1788380401 19.44° C 60% 1004.6 hPa - - - -
1788379801 19.44° C 60% 1004.5 hPa - - - -
1788379219 20° C 59% 1004.4 hPa - - - -
1788378600 20° C 57% 1004.6 hPa - - - -
1788378000 20° C 56% 1004.4 hPa - - - -

* Rain since midnight (hover to see other rain measurements)
** Current wind speed in m/s (hover to see current wind gust speed)